Location: Newark
(19.2128°S, 49.7858°W)
Time: 03:27:24
(UTC+00:00)

Envisat - Pass Details

Date: 01 September 2019
Orbit: 764 x 766 km, 98.1° (Epoch: 14 October)

Event Time Altitude Azimuth Distance (km) Brightness Sun altitude
Rises 22:30:07 0° 177° (S) 3,250 6.2 -19.4°
Reaches altitude 10° 22:32:29 10° 182° (S) 2,318 5.5 -19.9°
Maximum altitude 22:37:24 50° 256° (WSW) 975 3.9 -21.1°
Drops below altitude 10° 22:42:17 10° 330° (NNW) 2,296 5.8 -22.2°
Sets 22:44:38 0° 335° (NNW) 3,216 6.6 -22.8°
